DW6733 Weather Reports


time (UTC)temp
C
wind
direction
speed
KPH
gust
KPH
rain 1hr
cm
rain 24hr
cm
rain mn
cm
humidity
%
barometer
mb
20260504214905 22 229 12.9 25.7 0.00 0.00 0.00 53 1005.8
20260504214205 22 228 12.9 27.4 0.00 0.00 0.00 55 1005.8
20260504213506 22 230 9.7 22.5 0.00 0.00 0.00 57 1005.8
20260504212805 22 226 11.3 30.6 0.00 0.00 0.00 57 1005.9
20260504212106 22 229 12.9 30.6 0.00 0.00 0.00 57 1005.9
20260504211427 21 225 11.3 22.5 0.00 0.00 0.00 61 1005.9
20260504210705 21 220 9.7 22.5 0.00 0.00 0.00 61 1005.8
20260504210005 21 232 9.7 22.5 0.00 0.00 0.00 61 1006.2
20260504205626 21 234 9.7 22.5 0.00 0.00 0.00 63 1006.6
20260504204905 20 236 9.7 24.1 0.00 0.00 0.00 65 1006.7
20260504204205 20 234 8.0 24.1 0.00 0.00 0.00 68 1006.9
20260504203505 20 228 9.7 20.9 0.00 0.00 0.00 70 1007.0
20260504202805 19 227 9.7 17.7 0.00 0.00 0.00 69 1007.0
20260504202105 19 228 6.4 16.1 0.00 0.00 0.00 72 1007.0
20260504201405 18 219 4.8 14.5 0.00 0.00 0.00 72 1006.8
20260504200705 18 212 6.4 12.9 0.00 0.00 0.00 72 1006.7
20260504200006 18 211 4.8 12.9 0.00 0.00 0.00 73 1006.9
20260504195605 18 218 4.8 9.7 0.00 0.00 0.00 73 1007.1
20260504194905 18 230 4.8 9.7 0.00 0.00 0.00 72 1007.2
20260504194206 18 231 8.0 19.3 0.00 0.00 0.00 72 1007.6
20260504193527 18 230 8.0 25.7 0.00 0.00 0.00 70 1007.7
20260504192805 19 222 11.3 25.7 0.00 0.00 0.00 68 1007.8
20260504192126 20 232 17.7 37.0 0.00 0.00 0.00 63 1008.8
20260504191406 20 233 14.5 33.8 0.00 0.00 0.00 59 1008.6
20260504190705 20 232 17.7 35.4 0.00 0.00 0.00 58 1008.2
20260504190005 21 234 19.3 40.2 0.00 0.00 0.00 58 1008.2
20260504185605 21 234 16.1 37.0 0.00 0.00 0.00 57 1008.0
20260504184905 21 232 16.1 30.6 0.00 0.00 0.00 58 1007.8
20260504184205 21 230 11.3 30.6 0.00 0.00 0.00 58 1007.4
20260504183526 21 224 11.3 30.6 0.00 0.00 0.00 59 1007.6
20260504182805 21 219 11.3 27.4 0.00 0.00 0.00 59 1007.5
20260504182105 21 225 11.3 24.1 0.00 0.00 0.00 59 1007.2
20260504181405 21 225 12.9 30.6 0.00 0.00 0.00 57 1007.2
20260504180706 21 221 11.3 29.0 0.00 0.00 0.00 58 1007.1
20260504180026 21 211 11.3 24.1 0.00 0.00 0.00 58 1007.2
20260504175606 21 214 9.7 24.1 0.00 0.00 0.00 58 1007.3
20260504174905 21 215 9.7 20.9 0.00 0.00 0.00 59 1007.4
20260504174205 21 231 11.3 24.1 0.00 0.00 0.00 63 1007.3
20260504173505 20 224 14.5 30.6 0.00 0.00 0.00 59 1007.4
20260504172805 20 221 12.9 30.6 0.00 0.00 0.00 58 1007.5
20260504172105 20 227 11.3 20.9 0.00 0.00 0.00 58 1007.5
20260504171427 20 231 11.3 24.1 0.00 0.00 0.00 58 1007.6
20260504170706 20 224 9.7 22.5 0.00 0.00 0.00 59 1007.6
20260504150705 17 232 12.9 24.1 0.00 0.00 0.00 63 1008.4
20260504140704 16 221 9.7 24.1 0.00 0.00 0.00 64 1008.8
20260504130705 14 218 6.4 16.1 0.00 0.00 0.00 67 1009.0
20260504081403 11 213 4.8 9.7 0.00 0.00 0.00 66 1009.9
20260504080703 11 209 3.2 11.3 0.00 0.00 0.00 66 1010.0
20260504050708 12 215 4.8 11.3 0.00 0.00 0.00 60 1011.6
20260504050007 12 216 4.8 11.3 0.00 0.00 0.00 60 1011.6
20260504045608 12 218 4.8 12.9 0.00 0.00 0.00 60 1011.6
20260504044907 12 213 4.8 12.9 0.00 0.00 0.00 60 1011.7
20260504044207 12 205 3.2 11.3 0.00 0.00 0.00 60 1011.8
20260504043507 12 209 3.2 11.3 0.00 0.00 0.00 60 1011.8
20260504042807 12 205 3.2 14.5 0.00 0.00 0.00 60 1011.8
20260504042106 12 211 3.2 14.5 0.00 0.00 0.00 59 1011.9
20260504041406 12 208 4.8 17.7 0.00 0.00 0.00 60 1011.9
20260504040707 12 202 3.2 17.7 0.00 0.00 0.00 61 1012.1
20260504040008 11 226 3.2 9.7 0.00 0.00 0.00 63 1012.1
20260504035606 11 223 3.2 9.7 0.00 0.00 0.00 63 1012.1
20260504034906 11 196 1.6 6.4 0.00 0.00 0.00 64 1012.1
20260504034207 11 218 1.6 6.4 0.00 0.00 0.00 64 1012.3
20260504033506 11 200 0.0 4.8 0.00 0.00 0.00 65 1012.3
20260504032806 11 142 0.0 3.2 0.00 0.00 0.00 64 1012.3
20260504032106 11 141 0.0 3.2 0.00 0.00 0.00 64 1012.3
20260504031407 11 143 0.0 6.4 0.00 0.00 0.00 64 1012.4
20260504030706 11 168 1.6 6.4 0.00 0.00 0.00 63 1012.4
20260504030007 11 199 1.6 4.8 0.00 0.00 0.00 64 1012.5
20260504025606 11 169 1.6 6.4 0.00 0.00 0.00 65 1012.6
20260504024907 11 150 1.6 6.4 0.00 0.00 0.00 66 1012.7
20260504024227 10 111 0.0 3.2 0.00 0.00 0.00 68 1012.7
20260504023507 10 106 0.0 3.2 0.00 0.00 0.00 70 1012.7
20260504022807 11 105 0.0 4.8 0.00 0.00 0.00 73 1012.7
20260504022106 11 0 0.0 0.0 0.00 0.00 0.00 72 1012.7
20260504021406 11 0 0.0 0.0 0.00 0.00 0.00 72 1012.7
20260504020727 11 0 0.0 0.0 0.00 0.00 0.00 72 1012.7
20260504020006 11 87 1.6 4.8 0.00 0.00 0.00 71 1012.6
20260504015606 11 86 1.6 4.8 0.00 0.00 0.00 70 1012.7
20260504014906 11 75 1.6 4.8 0.00 0.00 0.00 71 1012.6
20260504014206 11 73 3.2 4.8 0.00 0.00 0.00 71 1012.5
20260504013506 11 76 3.2 4.8 0.00 0.00 0.00 70 1012.6
20260504012806 10 73 3.2 4.8 0.00 0.00 0.00 70 1012.6
20260504012107 10 74 3.2 6.4 0.00 0.00 0.00 71 1012.7
20260504011406 10 92 1.6 4.8 0.00 0.00 0.00 72 1012.8
20260504010707 10 98 1.6 4.8 0.00 0.00 0.00 71 1012.8
20260504010006 10 101 1.6 6.4 0.00 0.00 0.00 71 1012.7
20260504005627 11 89 3.2 8.0 0.00 0.00 0.00 71 1012.7
20260504004906 11 79 3.2 8.0 0.00 0.00 0.00 71 1012.6
20260504004227 11 77 1.6 6.4 0.00 0.00 0.00 71 1012.7
20260504003506 11 72 1.6 4.8 0.00 0.00 0.00 71 1012.6
20260504002807 11 79 1.6 4.8 0.00 0.00 0.00 72 1012.5
20260504002106 11 69 3.2 11.3 0.00 0.00 0.00 71 1012.6
20260504001406 11 73 3.2 11.3 0.00 0.00 0.00 71 1012.6
20260504000706 11 96 3.2 6.4 0.00 0.00 0.00 72 1012.3
20260504000027 11 98 3.2 9.7 0.00 0.00 0.00 71 1012.4
20260503235606 11 97 4.8 12.9 0.00 0.00 0.00 72 1012.2
20260503234906 11 95 4.8 12.9 0.00 0.00 0.00 71 1012.1
20260503234206 11 96 3.2 11.3 0.00 0.00 0.00 72 1012.2
20260503233527 11 99 4.8 11.3 0.00 0.00 0.00 72 1012.3
20260503232806 11 91 4.8 9.7 0.00 0.00 0.00 72 1012.5
20260503232106 11 100 3.2 9.7 0.00 0.00 0.00 71 1012.8
20260503231407 11 76 3.2 9.7 0.00 0.00 0.00 71 1012.9
20260503230726 11 83 4.8 9.7 0.00 0.00 0.00 72 1013.1
20260503230027 11 89 4.8 9.7 0.00 0.00 0.00 70 1013.2
20260503225605 11 81 4.8 9.7 0.00 0.00 0.00 69 1013.3
20260503224927 11 69 4.8 11.3 0.00 0.00 0.00 70 1013.4
20260503224205 11 68 4.8 11.3 0.00 0.00 0.00 70 1013.5
20260503223505 11 53 3.2 8.0 0.00 0.00 0.00 72 1013.8
20260503222805 11 59 3.2 8.0 0.00 0.00 0.00 71 1014.0
20260503222105 11 59 3.2 8.0 0.00 0.00 0.00 71 1014.1
20260503221426 11 59 3.2 6.4 0.00 0.00 0.00 72 1014.0
20260503220705 11 86 3.2 6.4 0.00 0.00 0.00 73 1014.1
20260503220005 11 61 1.6 6.4 0.00 0.00 0.00 74 1014.0
20260503215605 11 32 1.6 6.4 0.00 0.00 0.00 73 1014.0